User: anonymous   Login
Location: Meriden
(44.0740°N, 93.3870°W)
Time: 17:33:35
(UTC-05:00)
Language:

Hamsat - Orbit

View from above orbital plane
View from above orbital plane
View from above satellite
View from above satellite

Ground track
Ground track

The orbit data is extracted from the following two-line orbital elements,

1 28650U 05017B   16177.93965252 +.00000333 +00000-0 +41577-4 0  9994
2 28650 097.6082 159.4286 0022438 227.8838 132.0472 14.88308627603103
Epoch (UTC): 25 June 2016 22:33:05
Eccentricity: 0.0022438
inclination: 97.6082°
perigee height: 587 km
apogee height: 619 km
right ascension of ascending node: 159.4286°
argument of perigee: 227.8838°
revolutions per day: 14.88308627
mean anomaly at epoch: 132.0472°
orbit number at epoch: 60310

The dashed part of the orbit path shows where the satellite is in the earth's shadow,  

DLR